Beaufort, NC

8:36 PM EST on December 13, 2019 (GMT -0500)
Smith

Weather History for KMRH - May, 2019

Change the Weather History Date:

Thursday, May 16, 2019

  Actual Average Record
Temperature  
Mean Temperature 70 °F -  
Max Temperature 78 °F 77 °F 85 °F (1956)
Min Temperature 62 °F 60 °F 50 °F (1977)
Cooling Degree Days 4    
Growing Degree Days 20 (Base 50)    
Moisture  
Dew Point 56 °F    
Average Humidity 60    
Maximum Humidity 75    
Minimum Humidity 44    
Precipitation  
Precipitation 0.00 in - - ()
Sea Level Pressure  
Sea Level Pressure 30.00 in    
Wind  
Wind Speed 12 mph (WSW)    
Max Wind Speed 22 mph    
Max Gust Speed 28 mph    
Visibility 10 miles    
Events      
Averages and records for this station are not official NWS values.
T = Trace of Precipitation, MM = Missing Value Source: NWS Daily Summary

Daily Weather History Graph

Daily Weather History Graph

Search for Another Location

Airport or City:

Astronomy

May. 16, 2019 Rise Set
Actual Time 6:03 AM EDT 8:03 PM EDT
Civil Twilight 5:35 AM EDT 8:31 PM EDT
Nautical Twilight 5:01 AM EDT 9:05 PM EDT
Astronomical Twilight 4:24 AM EDT 9:42 PM EDT
Moon 5:48 PM EDT (5/16) 4:50 AM EDT (5/16)
Length of Visible Light 14h 56m
Length of Day
14h 00m
Waxing Gibbous, 94% of the Moon is Illuminated
May 16
Waxing Gibbous
May 18
Full
May 26
Last Quarter
Jun 3
New
Jun 10
First Quarter

Hourly Weather History & Observations

Time (EDT) Temp. Dew Point Humidity Pressure Visibility Wind Dir Wind Speed Gust Speed Precip Events Conditions
12:58 AM 64.9 °F 52.0 °F 63% 30.04 in 10.0 mi SW 8.1 mph - N/A   Clear
1:58 AM 66.0 °F 53.1 °F 63% 30.03 in 10.0 mi SW 10.4 mph - N/A   Partly Cloudy
2:58 AM 66.0 °F 54.0 °F 65% 30.01 in 10.0 mi SW 10.4 mph - N/A   Scattered Clouds
3:58 AM 62.1 °F 54.0 °F 75% 30.01 in 10.0 mi WNW 5.8 mph - N/A   Partly Cloudy
4:58 AM 64.9 °F 53.1 °F 65% 30.02 in 10.0 mi West 13.8 mph 18.4 mph N/A   Clear
5:58 AM 64.0 °F 53.1 °F 67% 30.03 in 10.0 mi WSW 5.8 mph - N/A   Clear
6:58 AM 66.0 °F 53.1 °F 63% 30.03 in 10.0 mi West 10.4 mph - N/A   Clear
7:58 AM 66.9 °F 52.0 °F 59% 30.04 in 10.0 mi West 11.5 mph - N/A   Clear
8:58 AM 71.1 °F 53.1 °F 53% 30.05 in 10.0 mi West 10.4 mph - N/A   Clear
9:58 AM 73.9 °F 51.1 °F 45% 30.05 in 10.0 mi WSW 11.5 mph - N/A   Partly Cloudy
10:58 AM 75.0 °F 52.0 °F 44% 30.04 in 10.0 mi WSW 12.7 mph - N/A   Clear
11:58 AM 75.9 °F 53.1 °F 45% 30.04 in 10.0 mi WSW 13.8 mph 23.0 mph N/A   Clear
12:58 PM 75.9 °F 57.9 °F 54% 30.01 in 10.0 mi SW 17.3 mph - N/A   Partly Cloudy
1:58 PM 77.0 °F 57.9 °F 52% 29.99 in 10.0 mi SW 19.6 mph - N/A   Mostly Cloudy
2:58 PM 75.9 °F 59.0 °F 56% 29.97 in 10.0 mi SW 21.9 mph 27.6 mph N/A   Partly Cloudy
3:58 PM 77.0 °F 60.1 °F 56% 29.95 in 10.0 mi SW 18.4 mph - N/A   Clear
4:58 PM 75.9 °F 61.0 °F 60% 29.95 in 10.0 mi SW 19.6 mph 25.3 mph N/A   Clear
5:58 PM 75.0 °F 61.0 °F 62% 29.94 in 10.0 mi SW 16.1 mph 26.5 mph N/A   Clear
6:58 PM 73.9 °F 62.1 °F 66% 29.94 in 10.0 mi SW 18.4 mph - N/A   Clear
7:58 PM 72.0 °F 62.1 °F 71% 29.95 in 10.0 mi SW 17.3 mph 24.2 mph N/A   Clear
8:58 PM 73.0 °F 62.1 °F 68% 29.96 in 10.0 mi SW 17.3 mph 25.3 mph N/A   Clear
9:58 PM 73.0 °F 63.0 °F 71% 29.98 in 10.0 mi WSW 13.8 mph 23.0 mph N/A   Scattered Clouds